Upington, South Africa

4:56 AM SAST on May 22, 2018 (GMT +0200)
Upington

Weather History for FAUP - December, 2012

Change the Weather History Date:

Sunday, December 9, 2012

  Actual Average Record
Temperature  
Mean Temperature 79 °F -  
Max Temperature 99 °F 92 °F 102 °F (2008)
Min Temperature 59 °F 64 °F 59 °F (2006)
Cooling Degree Days 14    
Growing Degree Days 29 (Base 50)    
Moisture  
Dew Point 32 °F    
Average Humidity 18    
Maximum Humidity 48    
Minimum Humidity 4    
Precipitation  
Precipitation 0.00 in 0.03 in - ()
Sea Level Pressure  
Sea Level Pressure 29.91 in    
Wind  
Wind Speed 6 mph ()    
Max Wind Speed 18 mph    
Max Gust Speed 30 mph    
Visibility 6.2 miles    
Events      
Averages and records for this station are not official NWS values.
T = Trace of Precipitation, MM = Missing Value Source: Averaged Metar Reports

Daily Weather History Graph

Daily Weather History Graph

Search for Another Location

Airport or City:

Astronomy

Dec. 09, 2012 Rise Set
Actual Time 5:30 AM SAST 7:24 PM SAST
Civil Twilight 5:03 AM SAST 7:51 PM SAST
Nautical Twilight 4:31 AM SAST 8:23 PM SAST
Astronomical Twilight 3:57 AM SAST 8:57 PM SAST
Moon 1:59 AM SAST (12/9) 3:14 PM SAST (12/9)
Length of Visible Light 14h 47m
Length of Day
13h 54m
Waning Crescent, 21% of the Moon is Illuminated
Dec 9
Waning Crescent
Dec 13
New
Dec 20
First Quarter
Dec 28
Full
Jan 5
Last Quarter

Hourly Weather History & Observations

Time (SAST) Temp. Dew Point Humidity Pressure Visibility Wind Dir Wind Speed Gust Speed Precip Events Conditions
12:00 AM - - N/A% 0.00 in - North - - N/A   Unknown
1:00 AM 64.4 °F 32.0 °F 30% 29.92 in - WNW 5.8 mph - N/A   Clear
2:00 AM 65 °F 33 °F 19%  in 25 mi West 5.8 mph - -  
2:00 AM 64.4 °F 32.0 °F 30% 29.92 in - West 4.6 mph - N/A   Clear
4:00 AM 62.6 °F 35.6 °F 37% 29.95 in - WSW 5.8 mph - N/A   Clear
5:00 AM 60.8 °F 37.4 °F 42% 29.95 in - WSW 2.3 mph - N/A   Clear
6:00 AM 59.0 °F 39.2 °F 48% 29.98 in - North 3.5 mph - N/A   Clear
6:35 AM 68.0 °F 37.4 °F 33% 29.98 in - West 2.3 mph - N/A   Clear
7:52 AM 75.2 °F 42.8 °F 31% 29.98 in - SSW 4.6 mph - N/A   Clear
8:00 AM 75 °F 44 °F 22%  in 6 mi SSW 4.6 mph - -   Smoke
8:00 AM 75.2 °F 42.8 °F 31% 29.95 in - SSW 4.6 mph - N/A   Clear
8:12 AM 78.8 °F 44.6 °F 30% 29.95 in - South 2.3 mph - N/A   Clear
8:49 AM 82.4 °F 44.6 °F 26% 29.98 in - SSE 1.2 mph - N/A   Clear
9:00 AM 82.4 °F 44.6 °F 26% 29.95 in - SE 1.2 mph - N/A   Clear
9:50 AM 86.0 °F 41.0 °F 20% 29.95 in - West 2.3 mph - N/A   Clear
10:00 AM 87.8 °F 41.0 °F 19% 29.95 in - West 2.3 mph - N/A   Clear
10:39 AM 91.4 °F 32.0 °F 12% 29.92 in - West 6.9 mph - N/A   Clear
11:00 AM 94 °F 32 °F 5%  in 25 mi WNW 6.9 mph - -   Clear
11:00 AM 93.2 °F 32.0 °F 11% 29.92 in - WNW 6.9 mph - N/A   Clear
12:00 PM 96.8 °F 21.2 °F 7% 29.92 in - WSW 13.8 mph 26.5 mph N/A   Clear
1:00 PM 95.0 °F 21.2 °F 7% 29.89 in 6.2 mi WSW 13.8 mph - N/A   Partly Cloudy
2:00 PM 98 °F 21 °F 4%  in 25 mi WSW 18.4 mph - -   Scattered Clouds
2:00 PM 96.8 °F 21.2 °F 7% 29.89 in 6.2 mi WSW 18.4 mph - N/A   Partly Cloudy
3:00 PM 93.2 °F 19.4 °F 7% 29.86 in 6.2 mi WSW 15.0 mph - N/A   Scattered Clouds
4:00 PM 93.2 °F 23.0 °F 8% 29.83 in 6.2 mi WSW 18.4 mph - N/A   Partly Cloudy
5:00 PM 97 °F 24 °F 4%  in 25 mi WSW 13.8 mph - -   Scattered Clouds
5:00 PM 96.8 °F 24.8 °F 8% 29.83 in 6.2 mi WSW 13.8 mph - N/A   Partly Cloudy
6:00 PM 93.2 °F 23.0 °F 8% 29.80 in 6.2 mi SW 12.7 mph 29.9 mph N/A   Partly Cloudy
7:00 PM 89.6 °F 23.0 °F 9% 29.80 in 6.2 mi WSW 13.8 mph - N/A   Partly Cloudy
8:00 PM 86 °F 22 °F 4%  in 25 mi SW 10.4 mph - -   Scattered Clouds
8:00 PM 86.0 °F 23.0 °F 10% 29.83 in 6.2 mi SW 9.2 mph - N/A   Partly Cloudy
9:00 PM 78.8 °F 23.0 °F 13% 29.83 in - SW 5.8 mph - N/A   Unknown
10:00 PM 75.2 °F 23.0 °F 14% 29.86 in - West 5.8 mph - N/A   Unknown
11:00 PM 81 °F 39 °F 13%  in - SSW 11.5 mph - -  
11:00 PM 80.6 °F 37.4 °F 21% 29.86 in - SSW 10.4 mph - N/A   Unknown